RYR7597 LFBO-LEMH

Flight info

Callsign RYR7597
Flight time 0h 45m
Altitude 31000
Route RIBOU DCT ROCAN DCT GEANT DCT GIR DCT SALON DCT SULID DCT DIPES N727 SARGO
Aircraft B738/M-SDE2E3FGHIRWXY/LB1

Departure

Time 2026-04-23 22:03
Airport Toulouse-Blagnac Airport (LFBO)

Arrival

Time 2026-04-23 22:48
Airport Menorca Airport (LEMH)
Time Latitude Longitude Altitude Speed Heading
2026-04-23 21:46 43.62797 1.37662 493 ft 0 kts 53°
2026-04-23 21:55 43.62793 1.37654 486 ft 2 kts 53°
2026-04-23 21:55 43.62783 1.37636 483 ft 2 kts 53°
2026-04-23 21:56 43.62773 1.37618 488 ft 2 kts 53°
2026-04-23 21:56 43.62761 1.37604 487 ft 2 kts 359°
2026-04-23 21:56 43.62750 1.37610 486 ft 0 kts 323°
2026-04-23 21:58 43.62765 1.37596 488 ft 7 kts 326°
2026-04-23 21:59 43.62823 1.37529 493 ft 11 kts 294°
2026-04-23 21:59 43.62803 1.37394 488 ft 15 kts 263°
2026-04-23 21:59 43.62888 1.37260 488 ft 21 kts 309°
2026-04-23 22:00 43.62944 1.36899 491 ft 27 kts 322°
2026-04-23 22:00 43.63109 1.36724 493 ft 32 kts 322°
2026-04-23 22:00 43.63301 1.36525 491 ft 37 kts 323°
2026-04-23 22:00 43.63516 1.36304 487 ft 40 kts 323°
2026-04-23 22:01 43.63744 1.36069 490 ft 37 kts 323°
2026-04-23 22:01 43.63788 1.35883 485 ft 0 kts 233°
2026-04-23 22:02 43.63788 1.35882 485 ft 1 kts 233°
2026-04-23 22:02 43.63753 1.35827 490 ft 14 kts 224°
2026-04-23 22:02 43.63636 1.35867 491 ft 25 kts 143°
2026-04-23 22:02 43.63388 1.36121 484 ft 83 kts 143°
2026-04-23 22:03 43.62703 1.36831 492 ft 161 kts 143°
2026-04-23 22:03 43.61701 1.37870 1005 ft 197 kts 143°
2026-04-23 22:03 43.60566 1.39048 1933 ft 203 kts 143°
2026-04-23 22:03 43.59455 1.40169 3168 ft 194 kts 144°
2026-04-23 22:04 43.58384 1.41267 4254 ft 193 kts 143°
2026-04-23 22:04 43.57261 1.42427 4870 ft 215 kts 143°
2026-04-23 22:04 43.55979 1.43754 5152 ft 245 kts 143°
2026-04-23 22:04 43.54557 1.45225 5578 ft 268 kts 143°
2026-04-23 22:05 43.53026 1.46807 6408 ft 274 kts 143°
2026-04-23 22:05 43.51492 1.48392 7323 ft 277 kts 143°
2026-04-23 22:05 43.49938 1.49996 8208 ft 281 kts 143°
2026-04-23 22:05 43.48384 1.51597 9057 ft 285 kts 143°
2026-04-23 22:06 43.46768 1.53263 9917 ft 288 kts 143°
2026-04-23 22:06 43.45136 1.54942 10547 ft 302 kts 143°
2026-04-23 22:06 43.43402 1.56724 10751 ft 328 kts 143°
2026-04-23 22:06 43.41537 1.58641 11304 ft 340 kts 143°
2026-04-23 22:07 43.39605 1.60624 12089 ft 344 kts 143°
2026-04-23 22:07 43.37706 1.62573 12897 ft 347 kts 143°
2026-04-23 22:07 43.35734 1.64595 13680 ft 351 kts 143°
2026-04-23 22:07 43.33766 1.66610 14425 ft 355 kts 143°
2026-04-23 22:08 43.31773 1.68650 15154 ft 359 kts 143°
2026-04-23 22:08 43.29790 1.70678 15856 ft 363 kts 143°
2026-04-23 22:08 43.27752 1.72760 16558 ft 367 kts 144°
2026-04-23 22:08 43.25571 1.74596 17212 ft 371 kts 156°
2026-04-23 22:09 43.23118 1.75711 17894 ft 373 kts 166°
2026-04-23 22:09 43.20579 1.76538 18550 ft 377 kts 167°
2026-04-23 22:09 43.18014 1.77370 19169 ft 381 kts 167°
2026-04-23 22:09 43.15430 1.78221 19828 ft 383 kts 166°
2026-04-23 22:10 43.12847 1.79086 20612 ft 381 kts 166°
2026-04-23 22:10 43.10285 1.79956 21415 ft 378 kts 166°
2026-04-23 22:10 43.07740 1.80827 22148 ft 377 kts 166°
2026-04-23 22:10 43.05198 1.81700 22831 ft 376 kts 166°
2026-04-23 22:11 43.02662 1.82573 23492 ft 376 kts 166°
2026-04-23 22:11 43.00127 1.83445 24160 ft 375 kts 166°
2026-04-23 22:11 42.97599 1.84315 24792 ft 375 kts 166°
2026-04-23 22:11 42.95061 1.85187 24977 ft 381 kts 166°
2026-04-23 22:12 42.92447 1.86084 25015 ft 394 kts 166°
2026-04-23 22:12 42.89745 1.87010 25021 ft 407 kts 166°
2026-04-23 22:12 42.86961 1.87964 25018 ft 419 kts 166°
2026-04-23 22:12 42.84093 1.88946 25018 ft 430 kts 166°
2026-04-23 22:13 42.81154 1.89951 25014 ft 441 kts 166°
2026-04-23 22:13 42.78148 1.90979 25015 ft 450 kts 166°
2026-04-23 22:13 42.75086 1.92025 25005 ft 457 kts 166°
2026-04-23 22:13 42.71979 1.93084 25017 ft 463 kts 166°
2026-04-23 22:14 42.68882 1.94388 24990 ft 470 kts 158°
2026-04-23 22:14 42.65946 1.96378 25008 ft 475 kts 149°
2026-04-23 22:14 42.63252 1.99000 24997 ft 479 kts 140°
2026-04-23 22:14 42.60722 2.01959 25011 ft 481 kts 139°
2026-04-23 22:15 42.58172 2.04928 24997 ft 484 kts 140°
2026-04-23 22:15 42.55593 2.07883 25005 ft 487 kts 140°
2026-04-23 22:15 42.52987 2.10830 25008 ft 489 kts 140°
2026-04-23 22:15 42.50363 2.13774 25006 ft 491 kts 140°
2026-04-23 22:16 42.47732 2.16718 24997 ft 491 kts 140°
2026-04-23 22:16 42.45097 2.19665 24997 ft 491 kts 140°
2026-04-23 22:16 42.42457 2.22618 24987 ft 492 kts 140°
2026-04-23 22:16 42.39814 2.25568 25008 ft 493 kts 141°
2026-04-23 22:17 42.37166 2.28522 25007 ft 494 kts 141°
2026-04-23 22:17 42.34516 2.31473 25012 ft 493 kts 141°
2026-04-23 22:17 42.31869 2.34419 25005 ft 492 kts 141°
2026-04-23 22:17 42.29234 2.37349 24997 ft 490 kts 141°
2026-04-23 22:18 42.26603 2.40272 24990 ft 489 kts 141°
2026-04-23 22:18 42.23984 2.43177 25002 ft 487 kts 141°
2026-04-23 22:18 42.21374 2.46071 25004 ft 484 kts 141°
2026-04-23 22:18 42.18773 2.48950 24993 ft 483 kts 141°
2026-04-23 22:19 42.16216 2.51779 24996 ft 481 kts 141°
2026-04-23 22:19 42.13631 2.54634 24990 ft 480 kts 141°
2026-04-23 22:19 42.11050 2.57483 25003 ft 480 kts 141°
2026-04-23 22:19 42.08466 2.60331 25013 ft 480 kts 141°
2026-04-23 22:20 42.05883 2.63177 25010 ft 480 kts 141°
2026-04-23 22:20 42.03301 2.66017 25007 ft 480 kts 141°
2026-04-23 22:20 42.00716 2.68858 25003 ft 480 kts 141°
2026-04-23 22:20 41.98129 2.71699 25006 ft 480 kts 141°
2026-04-23 22:21 41.95545 2.74533 24998 ft 480 kts 141°
2026-04-23 22:21 41.92954 2.77363 25002 ft 480 kts 142°
2026-04-23 22:21 41.90299 2.80069 24999 ft 480 kts 144°
2026-04-23 22:21 41.87582 2.82672 25008 ft 479 kts 145°
2026-04-23 22:22 41.84845 2.85234 25002 ft 480 kts 145°
2026-04-23 22:22 41.82109 2.87787 24997 ft 480 kts 145°
2026-04-23 22:22 41.79374 2.90353 25001 ft 480 kts 145°
2026-04-23 22:22 41.76649 2.92929 25002 ft 480 kts 145°
2026-04-23 22:23 41.73923 2.95517 24997 ft 480 kts 144°
2026-04-23 22:23 41.71199 2.98109 25004 ft 480 kts 144°
2026-04-23 22:23 41.68479 3.00698 25000 ft 480 kts 144°
2026-04-23 22:23 41.65755 3.03288 25001 ft 480 kts 144°
2026-04-23 22:24 41.63030 3.05874 24999 ft 480 kts 144°
2026-04-23 22:24 41.60308 3.08454 25002 ft 480 kts 144°
2026-04-23 22:24 41.57583 3.11034 24996 ft 480 kts 145°
2026-04-23 22:24 41.54858 3.13612 25005 ft 480 kts 145°
2026-04-23 22:25 41.52136 3.16183 25002 ft 480 kts 145°
2026-04-23 22:25 41.49408 3.18751 25002 ft 480 kts 146°
2026-04-23 22:25 41.46628 3.21204 25002 ft 479 kts 148°
2026-04-23 22:25 41.43794 3.23551 25007 ft 479 kts 149°
2026-04-23 22:26 41.40990 3.25812 24979 ft 460 kts 149°
2026-04-23 22:26 41.38311 3.27958 24981 ft 440 kts 149°
2026-04-23 22:26 41.35749 3.30018 24982 ft 421 kts 149°
2026-04-23 22:26 41.33297 3.32000 24980 ft 404 kts 149°
2026-04-23 22:27 41.30939 3.33917 24765 ft 394 kts 149°
2026-04-23 22:27 41.28628 3.35801 24516 ft 386 kts 148°
2026-04-23 22:27 41.26350 3.37660 24113 ft 382 kts 148°
2026-04-23 22:27 41.24100 3.39496 23752 ft 378 kts 148°
2026-04-23 22:28 41.21869 3.41316 23375 ft 374 kts 148°
2026-04-23 22:28 41.19663 3.43115 23000 ft 371 kts 148°
2026-04-23 22:28 41.17473 3.44899 22626 ft 368 kts 149°
2026-04-23 22:28 41.15302 3.46667 22252 ft 364 kts 149°
2026-04-23 22:29 41.13178 3.48394 21887 ft 361 kts 149°
2026-04-23 22:29 41.11015 3.50152 21515 ft 358 kts 149°
2026-04-23 22:29 41.08896 3.51873 21144 ft 356 kts 149°
2026-04-23 22:29 41.06796 3.53576 20784 ft 353 kts 149°
2026-04-23 22:30 41.04738 3.55245 20430 ft 350 kts 149°
2026-04-23 22:30 41.02667 3.56923 20073 ft 348 kts 149°
2026-04-23 22:30 41.00586 3.58608 19714 ft 345 kts 149°
2026-04-23 22:30 40.98545 3.60259 19362 ft 342 kts 149°
2026-04-23 22:31 40.96546 3.61875 19014 ft 340 kts 149°
2026-04-23 22:31 40.94509 3.63521 18662 ft 338 kts 149°
2026-04-23 22:31 40.92510 3.65134 18314 ft 335 kts 149°
2026-04-23 22:31 40.90552 3.66714 17973 ft 333 kts 149°
2026-04-23 22:32 40.88556 3.68323 17628 ft 331 kts 149°
2026-04-23 22:32 40.86597 3.69901 17281 ft 329 kts 149°
2026-04-23 22:32 40.84677 3.71446 16946 ft 326 kts 149°
2026-04-23 22:32 40.82719 3.73022 16604 ft 324 kts 149°
2026-04-23 22:33 40.80797 3.74567 16273 ft 322 kts 149°
2026-04-23 22:33 40.78890 3.76099 15939 ft 320 kts 149°
2026-04-23 22:33 40.77631 3.77109 15719 ft 319 kts 149°
2026-04-23 22:33 40.75130 3.79116 15280 ft 316 kts 149°
2026-04-23 22:34 40.73254 3.80620 14950 ft 314 kts 149°
2026-04-23 22:34 40.71392 3.82112 14628 ft 313 kts 149°
2026-04-23 22:34 40.69538 3.83597 14297 ft 311 kts 149°
2026-04-23 22:34 40.68293 3.84593 14071 ft 310 kts 149°
2026-04-23 22:35 40.66457 3.86062 13750 ft 308 kts 149°
2026-04-23 22:35 40.64632 3.87520 13428 ft 306 kts 149°
2026-04-23 22:35 40.62816 3.88971 13106 ft 304 kts 149°
2026-04-23 22:35 40.61013 3.90411 12794 ft 302 kts 149°
2026-04-23 22:36 40.59235 3.91830 12630 ft 295 kts 149°
2026-04-23 22:36 40.57487 3.93224 12343 ft 293 kts 149°
2026-04-23 22:36 40.55747 3.94611 12008 ft 292 kts 149°
2026-04-23 22:36 40.54009 3.95995 11692 ft 291 kts 149°
2026-04-23 22:37 40.52279 3.97371 11390 ft 290 kts 149°
2026-04-23 22:37 40.50560 3.98738 11083 ft 288 kts 149°
2026-04-23 22:37 40.48822 4.00043 10808 ft 286 kts 153°
2026-04-23 22:37 40.47059 4.01221 10559 ft 282 kts 154°
2026-04-23 22:38 40.45311 4.02355 10322 ft 279 kts 154°
2026-04-23 22:38 40.43573 4.03480 10027 ft 278 kts 154°
2026-04-23 22:38 40.41842 4.04605 9727 ft 277 kts 154°
2026-04-23 22:38 40.40122 4.05728 9439 ft 276 kts 154°
2026-04-23 22:39 40.38408 4.06850 9150 ft 275 kts 154°
2026-04-23 22:39 40.36704 4.07968 8861 ft 274 kts 154°
2026-04-23 22:39 40.35006 4.09083 8574 ft 272 kts 154°
2026-04-23 22:39 40.33315 4.10194 8288 ft 271 kts 154°
2026-04-23 22:40 40.31634 4.11299 8004 ft 270 kts 154°
2026-04-23 22:40 40.29957 4.12401 7717 ft 269 kts 154°
2026-04-23 22:40 40.26626 4.14588 7150 ft 267 kts 154°
2026-04-23 22:41 40.24970 4.15675 6875 ft 266 kts 154°
2026-04-23 22:41 40.23321 4.16757 6595 ft 265 kts 154°
2026-04-23 22:41 40.21678 4.17834 6311 ft 263 kts 154°
2026-04-23 22:41 40.20044 4.18905 6032 ft 262 kts 154°
2026-04-23 22:42 40.18414 4.19973 5754 ft 261 kts 154°
2026-04-23 22:42 40.16793 4.21035 5478 ft 260 kts 154°
2026-04-23 22:42 40.15200 4.22078 5206 ft 259 kts 154°
2026-04-23 22:42 40.13586 4.23134 4927 ft 258 kts 154°
2026-04-23 22:43 40.11985 4.24181 4674 ft 256 kts 154°
2026-04-23 22:43 40.10414 4.25206 4575 ft 248 kts 154°
2026-04-23 22:43 40.08801 4.25800 4466 ft 237 kts 181°
2026-04-23 22:43 40.07208 4.25588 4231 ft 230 kts 187°
2026-04-23 22:44 40.05631 4.25353 3932 ft 225 kts 187°
2026-04-23 22:44 40.04092 4.25089 3622 ft 220 kts 188°
2026-04-23 22:44 40.02597 4.24816 3333 ft 213 kts 188°
2026-04-23 22:44 40.01156 4.24552 3035 ft 205 kts 188°
2026-04-23 22:45 39.99768 4.24298 2770 ft 198 kts 188°
2026-04-23 22:45 39.98425 4.24053 2506 ft 191 kts 188°
2026-04-23 22:45 39.97151 4.23821 2264 ft 178 kts 188°
2026-04-23 22:45 39.95983 4.23607 2032 ft 164 kts 188°
2026-04-23 22:46 39.94914 4.23412 1829 ft 147 kts 188°
2026-04-23 22:46 39.93912 4.23229 1642 ft 148 kts 189°
2026-04-23 22:46 39.92909 4.23046 1450 ft 144 kts 188°
2026-04-23 22:46 39.91930 4.22867 1256 ft 141 kts 189°
2026-04-23 22:47 39.90962 4.22690 1078 ft 141 kts 188°
2026-04-23 22:47 39.89990 4.22513 890 ft 141 kts 188°
2026-04-23 22:47 39.89021 4.22336 697 ft 141 kts 188°
2026-04-23 22:47 39.88054 4.22159 522 ft 140 kts 188°
2026-04-23 22:48 39.87088 4.21983 333 ft 140 kts 188°
2026-04-23 22:48 39.86204 4.21823 303 ft 104 kts 186°
2026-04-23 22:48 39.85707 4.21766 294 ft 55 kts 183°
2026-04-23 22:48 39.85426 4.21852 282 ft 21 kts 132°
2026-04-23 22:49 39.85459 4.21931 283 ft 9 kts 17°
2026-04-23 22:49 39.85526 4.21951 284 ft 11 kts
2026-04-23 22:49 39.85626 4.21970 287 ft 17 kts
2026-04-23 22:49 39.85762 4.21997 291 ft 22 kts
2026-04-23 22:50 39.85929 4.22033 295 ft 27 kts
2026-04-23 22:50 39.86133 4.22080 296 ft 32 kts 14°
2026-04-23 22:50 39.86186 4.22224 288 ft 20 kts 79°
2026-04-23 22:50 39.86245 4.22270 287 ft 13 kts
2026-04-23 22:51 39.86269 4.22348 285 ft 13 kts 100°
2026-04-23 22:51 39.86262 4.22400 285 ft 0 kts 99°